Find Starlink 33832

NORAD ID: 63637 Int'l Des: 2025-083 Owner: SPXS Country: US Constellation: starlink operational
LEOCIRCULAR

Current View

Loading 3D Globe...

About Starlink 33832

Starlink 33832 (NORAD 63637) is a starlink constellation satellite (v2 mini) launched Apr 25, 2025 by SPXS of US. It operates in LEO, CIRCULAR orbit with a mass of 575.00 kg.

About Starlink 33832

Description loading...

Upcoming Passes

Passes for default location (London). Set your location on the main map for personalized predictions.

Altitude History

Loading altitude history...

Two-Line Element Set

1 63637U 25083D 26170.32068504 .00021160 00000-0 77600-3 0 9990
2 63637 43.0032 150.9417 0001589 263.5253 96.5418 15.27591441 65615
Epoch: Jun 19, 2026 • Age: 15 hours

Current Status

Altitude 482.2 km
Velocity 7.63 km/s
Sub-Earth Point 8.62°N, 71.75°E
Launch Date Apr 25, 2025
Age 1.1 years
Type internet

Technical Details

Classification Payload
Mass 575.00 kg
Dry Mass 530.00 kg
Total Mass 575.00 kg
Length 0.30 m
Diameter 4.10 m
Span 29.00 m
Shape Box + pan
Manufacturer SPXS
Bus Type Starlink V2MO
Phase Status In Orbit
Owner/State SPXS/US

Most Searched